Orbital Elements at Epoch 2459200.5 (2020-Dec-17.0) TDB
Reference: JPL 22 (heliocentric ecliptic J2000)
Element | Value | Uncertainty (1-sigma) | Units |
e | .07761487618063057 | 4.5375e-08 | |
a | 2.53909243147878 | 1.2941e-08 | au |
q | 2.342021086798378 | 1.1549e-07 | au |
i | 2.792801258791349 | 4.6218e-06 | deg |
node | 22.89506533017936 | 0.00012067 | deg |
peri | 41.64588200800353 | 0.00012565 | deg |
M | 102.1164302752668 | 3.687e-05 | deg |
tp | 2458781.311541139324 (2019-Oct-24.81154114) | 0.0001509 | TDB |
period | 1477.80180704568 4.05 | 1.1298e-05 3.093e-08 | d yr |
n | .243605061438981 | 1.8624e-09 | deg/d |
Q | 2.736163776159182 | 1.3946e-08 | au |
|
| | Orbit Determination Parameters
Additional Information
|